Time,TemperatureF,DewpointF,PressureIn,WindDirection,WindDirectionDegrees,WindSpeedMPH,WindSpeedGustMPH,Humidity,HourlyPrecipIn,Conditions,Clouds,dailyrainin,SoftwareType,DateUTC
2013-01-11 00:01:00,64.6,57.2,30.06,SSE,158,0.0,0.0,77,0.00,,---,0.00,VWS V14.00,2013-01-11 05:01:00,
2013-01-11 00:03:00,64.6,57.2,30.06,ESE,112,0.0,0.0,77,0.00,,---,0.00,VWS V14.00,2013-01-11 05:03:00,
2013-01-11 00:08:00,64.4,57.0,30.06,ESE,112,0.0,0.0,77,0.00,,---,0.00,VWS V14.00,2013-01-11 05:08:00,
2013-01-11 00:13:00,64.4,57.0,30.03,SSE,158,0.0,0.0,77,0.00,,---,0.00,VWS V14.00,2013-01-11 05:13:00,
2013-01-11 00:18:00,64.4,57.0,30.03,SSE,158,0.0,0.0,77,0.00,,---,0.00,VWS V14.00,2013-01-11 05:18:00,
2013-01-11 00:24:00,64.2,56.9,30.03,SSE,158,0.0,0.0,77,0.00,,---,0.00,VWS V14.00,2013-01-11 05:24:00,
2013-01-11 00:29:00,64.2,56.9,30.03,SE,135,0.0,0.0,77,0.00,,---,0.00,VWS V14.00,2013-01-11 05:29:00,
2013-01-11 00:34:00,64.0,57.0,30.03,SSE,158,0.0,0.0,78,0.00,,---,0.00,VWS V14.00,2013-01-11 05:34:00,
2013-01-11 00:39:00,63.9,56.5,30.03,SSE,158,0.0,0.0,77,0.00,,---,0.00,VWS V14.00,2013-01-11 05:39:00,
2013-01-11 00:44:00,63.9,56.9,30.03,SSW,202,0.0,0.0,78,0.00,,---,0.00,VWS V14.00,2013-01-11 05:44:00,
2013-01-11 00:49:00,63.9,56.9,30.03,SSE,158,0.0,0.0,78,0.00,,---,0.00,VWS V14.00,2013-01-11 05:49:00,
2013-01-11 00:54:00,63.7,56.7,30.03,South,180,0.0,0.0,78,0.00,,---,0.00,VWS V14.00,2013-01-11 05:54:00,
2013-01-11 00:59:00,63.7,56.7,30.03,WNW,292,0.0,0.0,78,0.00,,---,0.00,VWS V14.00,2013-01-11 05:59:00,
2013-01-11 01:04:00,63.5,56.5,30.03,WNW,292,0.0,0.0,78,0.00,,---,0.00,VWS V14.00,2013-01-11 06:04:00,
2013-01-11 01:09:00,63.1,55.8,30.03,WNW,292,0.0,0.0,77,0.00,,---,0.00,VWS V14.00,2013-01-11 06:09:00,
2013-01-11 01:14:00,63.0,55.7,30.03,WNW,292,0.0,0.0,77,0.00,,---,0.00,VWS V14.00,2013-01-11 06:14:00,
2013-01-11 01:19:00,62.8,55.5,30.03,NW,315,0.0,0.0,77,0.00,,---,0.00,VWS V14.00,2013-01-11 06:19:00,
2013-01-11 01:24:00,62.6,55.3,30.03,ENE,68,0.0,0.0,77,0.00,,---,0.00,VWS V14.00,2013-01-11 06:24:00,
2013-01-11 01:29:00,62.4,55.1,30.03,ENE,68,0.0,0.0,77,0.00,,---,0.00,VWS V14.00,2013-01-11 06:29:00,
2013-01-11 01:34:00,62.4,55.5,30.03,West,270,0.0,0.0,78,0.00,,---,0.00,VWS V14.00,2013-01-11 06:34:00,
2013-01-11 01:40:00,62.2,55.3,30.03,WSW,248,0.0,0.0,78,0.00,,---,0.00,VWS V14.00,2013-01-11 06:40:00,
2013-01-11 01:45:00,62.1,55.1,30.03,SSE,158,0.0,0.0,78,0.00,,---,0.00,VWS V14.00,2013-01-11 06:45:00,
2013-01-11 01:50:00,61.9,55.0,30.03,SSE,158,0.0,0.0,78,0.00,,---,0.00,VWS V14.00,2013-01-11 06:50:00,
2013-01-11 01:55:00,61.9,55.0,30.03,SSE,158,0.0,0.0,78,0.00,,---,0.00,VWS V14.00,2013-01-11 06:55:00,
2013-01-11 02:00:00,61.9,55.3,30.03,SSE,158,0.0,0.0,79,0.00,,---,0.00,VWS V14.00,2013-01-11 07:00:00,
2013-01-11 02:05:00,61.7,55.1,30.03,SSE,158,0.0,0.0,79,0.00,,---,0.00,VWS V14.00,2013-01-11 07:05:00,
2013-01-11 02:10:00,61.7,54.8,30.03,SSE,158,0.0,0.0,78,0.00,,---,0.00,VWS V14.00,2013-01-11 07:10:00,
2013-01-11 02:15:00,61.3,54.4,30.03,SSE,158,0.0,0.0,78,0.00,,---,0.00,VWS V14.00,2013-01-11 07:15:00,
2013-01-11 02:20:00,61.3,54.4,30.03,SSE,158,0.0,0.0,78,0.00,,---,0.00,VWS V14.00,2013-01-11 07:20:00,
2013-01-11 02:25:00,61.2,54.3,30.03,SSE,158,0.0,0.0,78,0.00,,---,0.00,VWS V14.00,2013-01-11 07:25:00,
2013-01-11 02:30:00,61.2,54.6,30.03,SSE,158,0.0,0.0,79,0.00,,---,0.00,VWS V14.00,2013-01-11 07:30:00,
2013-01-11 02:35:00,61.3,54.8,30.03,SSE,158,0.0,0.0,79,0.00,,---,0.00,VWS V14.00,2013-01-11 07:35:00,
2013-01-11 02:40:00,61.3,55.1,30.03,SSE,158,0.0,0.0,80,0.00,,---,0.00,VWS V14.00,2013-01-11 07:40:00,
2013-01-11 02:45:00,61.0,54.4,30.03,SSE,158,0.0,0.0,79,0.00,,---,0.00,VWS V14.00,2013-01-11 07:45:00,
2013-01-11 02:50:00,60.8,54.3,30.03,SSE,158,0.0,0.0,79,0.00,,---,0.00,VWS V14.00,2013-01-11 07:50:00,
2013-01-11 02:55:00,60.8,54.3,30.03,SSE,158,0.0,0.0,79,0.00,,---,0.00,VWS V14.00,2013-01-11 07:55:00,
2013-01-11 03:00:00,60.8,54.6,30.03,SSE,158,0.0,0.0,80,0.00,,---,0.00,VWS V14.00,2013-01-11 08:00:00,
2013-01-11 03:05:00,60.8,54.6,30.03,SSE,158,0.0,0.0,80,0.00,,---,0.00,VWS V14.00,2013-01-11 08:05:00,
2013-01-11 03:10:00,60.8,54.6,30.03,SSE,158,0.0,0.0,80,0.00,,---,0.00,VWS V14.00,2013-01-11 08:10:00,
2013-01-11 03:15:00,60.8,54.6,30.03,SSE,158,0.0,0.0,80,0.00,,---,0.00,VWS V14.00,2013-01-11 08:15:00,
2013-01-11 03:21:00,60.6,54.8,30.03,SSE,158,0.0,0.0,81,0.00,,---,0.00,VWS V14.00,2013-01-11 08:21:00,
2013-01-11 03:26:00,60.6,54.8,30.03,SSE,158,0.0,0.0,81,0.00,,---,0.00,VWS V14.00,2013-01-11 08:26:00,
2013-01-11 03:31:00,60.4,54.2,30.03,SSE,158,0.0,0.0,80,0.00,,---,0.00,VWS V14.00,2013-01-11 08:31:00,
2013-01-11 03:36:00,60.1,53.9,30.03,SSE,158,0.0,0.0,80,0.00,,---,0.00,VWS V14.00,2013-01-11 08:36:00,
2013-01-11 03:41:00,60.1,53.9,30.03,SSE,158,0.0,0.0,80,0.00,,---,0.00,VWS V14.00,2013-01-11 08:41:00,
2013-01-11 03:46:00,60.1,53.9,30.03,SSE,158,0.0,0.0,80,0.00,,---,0.00,VWS V14.00,2013-01-11 08:46:00,
2013-01-11 03:51:00,60.1,54.2,30.03,SSE,158,0.0,0.0,81,0.00,,---,0.00,VWS V14.00,2013-01-11 08:51:00,
2013-01-11 03:56:00,60.1,54.2,30.03,SSE,158,0.0,0.0,81,0.00,,---,0.00,VWS V14.00,2013-01-11 08:56:00,
2013-01-11 04:01:00,60.1,54.2,30.00,SSE,158,0.0,0.0,81,0.00,,---,0.00,VWS V14.00,2013-01-11 09:01:00,
2013-01-11 04:06:00,60.1,54.2,30.00,SSE,158,0.0,0.0,81,0.00,,---,0.00,VWS V14.00,2013-01-11 09:06:00,
2013-01-11 04:11:00,59.9,54.1,30.00,SSE,158,0.0,0.0,81,0.00,,---,0.00,VWS V14.00,2013-01-11 09:11:00,
2013-01-11 04:16:00,59.7,53.9,30.00,SSE,158,0.0,0.0,81,0.00,,---,0.00,VWS V14.00,2013-01-11 09:16:00,
2013-01-11 04:21:00,59.5,53.4,30.00,SSE,158,0.0,0.0,80,0.00,,---,0.00,VWS V14.00,2013-01-11 09:21:00,
2013-01-11 04:27:00,59.4,53.2,30.00,SSE,158,0.0,0.0,80,0.00,,---,0.00,VWS V14.00,2013-01-11 09:27:00,
2013-01-11 04:32:00,59.2,53.0,30.00,SSE,158,0.0,0.0,80,0.00,,---,0.00,VWS V14.00,2013-01-11 09:32:00,
2013-01-11 04:37:00,59.2,53.0,30.00,SSE,158,0.0,0.0,80,0.00,,---,0.00,VWS V14.00,2013-01-11 09:37:00,
2013-01-11 04:42:00,59.4,53.5,30.00,SSE,158,0.0,0.0,81,0.00,,---,0.00,VWS V14.00,2013-01-11 09:42:00,
2013-01-11 04:47:00,59.0,52.8,30.00,SSE,158,0.0,0.0,80,0.00,,---,0.00,VWS V14.00,2013-01-11 09:47:00,
2013-01-11 04:52:00,58.8,52.7,30.00,SSE,158,0.0,0.0,80,0.00,,---,0.00,VWS V14.00,2013-01-11 09:52:00,
2013-01-11 04:57:00,58.8,52.7,30.00,WNW,292,0.0,0.0,80,0.00,,---,0.00,VWS V14.00,2013-01-11 09:57:00,
2013-01-11 05:02:00,58.8,53.0,30.00,WNW,292,0.0,0.0,81,0.00,,---,0.00,VWS V14.00,2013-01-11 10:02:00,
2013-01-11 05:07:00,58.8,53.0,30.00,WNW,292,0.0,0.0,81,0.00,,---,0.00,VWS V14.00,2013-01-11 10:07:00,
2013-01-11 05:12:00,59.0,53.2,29.97,WNW,292,0.0,0.0,81,0.00,,---,0.00,VWS V14.00,2013-01-11 10:12:00,
2013-01-11 05:17:00,58.8,53.3,29.97,WNW,292,0.0,0.0,82,0.00,,---,0.00,VWS V14.00,2013-01-11 10:17:00,
2013-01-11 05:22:00,58.8,53.3,29.97,WNW,292,0.0,0.0,82,0.00,,---,0.00,VWS V14.00,2013-01-11 10:22:00,
2013-01-11 05:27:00,58.8,53.3,30.00,WNW,292,0.0,0.0,82,0.00,,---,0.00,VWS V14.00,2013-01-11 10:27:00,
2013-01-11 05:32:00,58.6,52.8,30.00,WNW,292,0.0,0.0,81,0.00,,---,0.00,VWS V14.00,2013-01-11 10:32:00,
2013-01-11 05:37:00,58.6,52.8,30.00,WNW,292,0.0,0.0,81,0.00,,---,0.00,VWS V14.00,2013-01-11 10:37:00,
2013-01-11 05:42:00,58.8,53.3,30.00,WNW,292,0.0,0.0,82,0.00,,---,0.00,VWS V14.00,2013-01-11 10:42:00,
2013-01-11 05:47:00,58.6,53.2,30.00,WNW,292,0.0,0.0,82,0.00,,---,0.00,VWS V14.00,2013-01-11 10:47:00,
2013-01-11 05:52:00,58.6,53.2,30.00,WNW,292,0.0,0.0,82,0.00,,---,0.00,VWS V14.00,2013-01-11 10:52:00,
2013-01-11 05:57:00,58.6,53.2,30.00,WNW,292,0.0,0.0,82,0.00,,---,0.00,VWS V14.00,2013-01-11 10:57:00,
2013-01-11 06:03:00,58.3,52.5,30.00,WNW,292,0.0,0.0,81,0.00,,---,0.00,VWS V14.00,2013-01-11 11:03:00,
2013-01-11 06:08:00,58.3,52.5,30.00,WNW,292,0.0,0.0,81,0.00,,---,0.00,VWS V14.00,2013-01-11 11:08:00,
2013-01-11 06:13:00,58.1,52.3,30.00,WNW,292,0.0,0.0,81,0.00,,---,0.00,VWS V14.00,2013-01-11 11:13:00,
2013-01-11 06:18:00,58.1,52.3,30.00,WNW,292,0.0,0.0,81,0.00,,---,0.00,VWS V14.00,2013-01-11 11:18:00,
2013-01-11 06:23:00,57.9,52.1,30.00,WNW,292,0.0,0.0,81,0.00,,---,0.00,VWS V14.00,2013-01-11 11:23:00,
2013-01-11 06:28:00,57.9,52.1,30.00,WNW,292,0.0,0.0,81,0.00,,---,0.00,VWS V14.00,2013-01-11 11:28:00,
2013-01-11 06:33:00,57.9,52.1,30.00,WNW,292,0.0,0.0,81,0.00,,---,0.00,VWS V14.00,2013-01-11 11:33:00,
2013-01-11 06:38:00,57.9,52.5,30.00,WNW,292,0.0,0.0,82,0.00,,---,0.00,VWS V14.00,2013-01-11 11:38:00,
2013-01-11 06:43:00,57.9,52.5,30.03,WNW,292,0.0,0.0,82,0.00,,---,0.00,VWS V14.00,2013-01-11 11:43:00,
2013-01-11 06:49:00,57.7,52.0,30.03,WNW,292,0.0,0.0,81,0.00,,---,0.00,VWS V14.00,2013-01-11 11:49:00,
2013-01-11 06:54:00,57.9,52.5,30.03,WNW,292,0.0,0.0,82,0.00,,---,0.00,VWS V14.00,2013-01-11 11:54:00,
2013-01-11 06:59:00,57.7,52.0,30.00,WNW,292,0.0,0.0,81,0.00,,---,0.00,VWS V14.00,2013-01-11 11:59:00,
2013-01-11 07:04:00,57.6,51.8,30.00,WNW,292,0.0,0.0,81,0.00,,---,0.00,VWS V14.00,2013-01-11 12:04:00,
2013-01-11 07:09:00,57.6,51.8,30.00,WNW,292,0.0,0.0,81,0.00,,---,0.00,VWS V14.00,2013-01-11 12:09:00,
2013-01-11 07:14:00,57.4,51.6,30.00,South,180,0.0,0.0,81,0.00,,---,0.00,VWS V14.00,2013-01-11 12:14:00,
2013-01-11 07:19:00,57.4,51.6,30.00,WSW,248,0.0,0.0,81,0.00,,---,0.00,VWS V14.00,2013-01-11 12:19:00,
2013-01-11 07:24:00,57.6,52.1,30.00,SSE,158,0.0,0.0,82,0.00,,---,0.00,VWS V14.00,2013-01-11 12:24:00,
2013-01-11 07:29:00,57.7,52.6,30.00,SSE,158,0.0,0.0,83,0.00,,---,0.00,VWS V14.00,2013-01-11 12:29:00,
2013-01-11 07:34:00,57.9,52.8,30.00,WNW,292,0.0,0.0,83,0.00,,---,0.00,VWS V14.00,2013-01-11 12:34:00,
2013-01-11 07:39:00,57.9,52.8,30.00,ESE,112,0.0,0.0,83,0.00,,---,0.00,VWS V14.00,2013-01-11 12:39:00,
2013-01-11 07:44:00,57.9,52.8,30.03,NNE,22,0.0,0.0,83,0.00,,---,0.00,VWS V14.00,2013-01-11 12:44:00,
2013-01-11 07:49:00,57.9,52.8,30.03,East,90,0.0,0.0,83,0.00,,---,0.00,VWS V14.00,2013-01-11 12:49:00,
2013-01-11 07:54:00,58.1,53.3,30.03,SSE,158,0.0,0.0,84,0.00,,---,0.00,VWS V14.00,2013-01-11 12:54:00,
2013-01-11 07:59:00,58.3,53.5,30.03,South,180,0.0,0.0,84,0.00,,---,0.00,VWS V14.00,2013-01-11 12:59:00,
2013-01-11 08:04:00,58.5,53.7,30.03,South,180,0.0,0.0,84,0.00,,---,0.00,VWS V14.00,2013-01-11 13:04:00,
2013-01-11 08:09:00,58.8,54.3,30.03,NNE,22,0.0,0.0,85,0.00,,---,0.00,VWS V14.00,2013-01-11 13:09:00,
2013-01-11 08:14:00,59.2,54.7,30.03,SSW,202,0.0,0.0,85,0.00,,---,0.00,VWS V14.00,2013-01-11 13:14:00,
2013-01-11 08:19:00,59.4,55.2,30.03,South,180,0.0,0.0,86,0.00,,---,0.00,VWS V14.00,2013-01-11 13:19:00,
2013-01-11 08:24:00,59.5,55.3,30.03,SE,135,0.0,0.0,86,0.00,,---,0.00,VWS V14.00,2013-01-11 13:24:00,
2013-01-11 08:29:00,60.1,56.2,30.03,SSE,158,0.0,0.0,87,0.00,,---,0.00,VWS V14.00,2013-01-11 13:29:00,
2013-01-11 08:34:00,60.6,57.0,30.03,SE,135,0.0,0.0,88,0.00,,---,0.00,VWS V14.00,2013-01-11 13:34:00,
2013-01-11 08:39:00,61.3,58.1,30.03,SSE,158,0.0,0.0,89,0.00,,---,0.00,VWS V14.00,2013-01-11 13:39:00,
2013-01-11 08:44:00,62.2,59.3,30.03,SE,135,0.0,0.0,90,0.00,,---,0.00,VWS V14.00,2013-01-11 13:44:00,
2013-01-11 08:49:00,63.1,60.5,30.03,ESE,112,0.0,2.0,91,0.00,,---,0.00,VWS V14.00,2013-01-11 13:49:00,
2013-01-11 08:54:00,64.0,61.4,30.03,ESE,112,0.0,6.5,91,0.00,,---,0.00,VWS V14.00,2013-01-11 13:54:00,
2013-01-11 08:59:00,64.8,62.1,30.03,SSE,158,6.3,6.3,91,0.00,,---,0.00,VWS V14.00,2013-01-11 13:59:00,
2013-01-11 09:04:00,65.5,62.8,30.03,East,90,2.9,4.0,91,0.00,,---,0.00,VWS V14.00,2013-01-11 14:04:00,
2013-01-11 09:09:00,65.8,63.1,30.03,SE,135,8.7,8.7,91,0.00,,---,0.00,VWS V14.00,2013-01-11 14:09:00,
2013-01-11 09:14:00,66.2,63.5,30.03,SE,135,7.4,10.1,91,0.00,,---,0.00,VWS V14.00,2013-01-11 14:14:00,
2013-01-11 09:19:00,66.6,63.5,30.03,SE,135,2.5,6.3,90,0.00,,---,0.00,VWS V14.00,2013-01-11 14:19:00,
2013-01-11 09:24:00,66.9,63.9,30.03,ESE,112,0.0,0.9,90,0.00,,---,0.00,VWS V14.00,2013-01-11 14:24:00,
2013-01-11 09:29:00,67.5,64.4,30.03,ESE,112,7.4,7.4,90,0.00,,---,0.00,VWS V14.00,2013-01-11 14:29:00,
2013-01-11 09:34:00,67.6,64.6,30.03,ESE,112,6.5,7.8,90,0.00,,---,0.00,VWS V14.00,2013-01-11 14:34:00,
2013-01-11 09:39:00,68.0,65.0,30.03,SE,135,6.3,8.7,90,0.00,,---,0.00,VWS V14.00,2013-01-11 14:39:00,
2013-01-11 09:44:00,68.4,65.0,30.03,SSE,158,5.6,6.0,89,0.00,,---,0.00,VWS V14.00,2013-01-11 14:44:00,
2013-01-11 09:49:00,68.5,65.2,30.03,SSE,158,8.1,8.1,89,0.00,,---,0.00,VWS V14.00,2013-01-11 14:49:00,
2013-01-11 09:54:00,68.9,65.5,30.03,SSW,202,0.0,6.3,89,0.00,,---,0.00,VWS V14.00,2013-01-11 14:54:00,
2013-01-11 09:59:00,69.1,65.7,30.03,South,180,4.3,8.1,89,0.00,,---,0.00,VWS V14.00,2013-01-11 14:59:00,
2013-01-11 10:04:00,69.4,66.1,30.03,SSE,158,6.3,9.0,89,0.00,,---,0.00,VWS V14.00,2013-01-11 15:04:00,
2013-01-11 10:09:00,69.8,66.4,30.03,ESE,112,7.6,10.3,89,0.00,,---,0.00,VWS V14.00,2013-01-11 15:09:00,
2013-01-11 10:14:00,70.2,66.8,30.03,SSE,158,8.5,8.5,89,0.00,,---,0.00,VWS V14.00,2013-01-11 15:14:00,
2013-01-11 10:19:00,70.5,66.8,30.03,SSE,158,4.9,10.1,88,0.00,,---,0.00,VWS V14.00,2013-01-11 15:19:00,
2013-01-11 10:24:00,70.7,66.7,30.03,South,180,6.3,10.3,87,0.00,,---,0.00,VWS V14.00,2013-01-11 15:24:00,
2013-01-11 10:29:00,71.1,66.7,30.03,SSE,158,10.3,10.3,86,0.00,,---,0.00,VWS V14.00,2013-01-11 15:29:00,
2013-01-11 10:34:00,71.2,66.5,30.03,SE,135,7.4,8.7,85,0.00,,---,0.00,VWS V14.00,2013-01-11 15:34:00,
2013-01-11 10:39:00,71.6,66.5,30.03,South,180,6.0,7.8,84,0.00,,---,0.00,VWS V14.00,2013-01-11 15:39:00,
2013-01-11 10:44:00,72.0,66.2,30.03,SW,225,7.6,10.5,82,0.00,,---,0.00,VWS V14.00,2013-01-11 15:44:00,
2013-01-11 10:49:00,72.1,66.0,30.03,SSE,158,7.8,12.3,81,0.00,,---,0.00,VWS V14.00,2013-01-11 15:49:00,
2013-01-11 10:54:00,72.5,65.6,30.03,SSE,158,4.0,10.1,79,0.00,,---,0.00,VWS V14.00,2013-01-11 15:54:00,
2013-01-11 10:59:00,72.9,64.9,30.00,South,180,4.0,7.6,76,0.00,,---,0.00,VWS V14.00,2013-01-11 15:59:00,
2013-01-11 11:04:00,73.0,63.1,30.00,SSE,158,10.7,10.7,71,0.00,,---,0.00,VWS V14.00,2013-01-11 16:04:00,
2013-01-11 11:09:00,73.2,61.2,30.00,SSE,158,7.4,10.5,66,0.00,,---,0.00,VWS V14.00,2013-01-11 16:09:00,
2013-01-11 11:14:00,73.2,59.4,30.00,South,180,5.8,5.8,62,0.00,,---,0.00,VWS V14.00,2013-01-11 16:14:00,
2013-01-11 11:19:00,73.4,58.7,30.00,SSE,158,5.8,5.8,60,0.00,,---,0.00,VWS V14.00,2013-01-11 16:19:00,
2013-01-11 11:24:00,73.4,57.3,30.00,SSE,158,4.7,5.4,57,0.00,,---,0.00,VWS V14.00,2013-01-11 16:24:00,
2013-01-11 11:29:00,73.8,55.6,30.00,SSW,202,11.0,11.0,53,0.00,,---,0.00,VWS V14.00,2013-01-11 16:29:00,
2013-01-11 11:34:00,73.9,52.5,30.00,SSE,158,10.7,10.7,47,0.00,,---,0.00,VWS V14.00,2013-01-11 16:34:00,
2013-01-11 11:40:00,74.5,52.4,30.00,South,180,2.0,6.3,46,0.00,,---,0.00,VWS V14.00,2013-01-11 16:40:00,
2013-01-11 11:45:00,74.7,52.5,30.00,SE,135,2.0,5.6,46,0.00,,---,0.00,VWS V14.00,2013-01-11 16:45:00,
2013-01-11 11:50:00,75.0,51.7,30.00,SSE,158,6.5,11.9,44,0.00,,---,0.00,VWS V14.00,2013-01-11 16:50:00,
2013-01-11 11:55:00,75.0,49.8,30.00,South,180,11.9,11.9,41,0.00,,---,0.00,VWS V14.00,2013-01-11 16:55:00,
2013-01-11 12:00:00,75.0,46.3,30.00,SSW,202,7.2,7.2,36,0.00,,---,0.00,VWS V14.00,2013-01-11 17:00:00,
2013-01-11 12:05:00,74.8,46.1,30.00,South,180,7.8,8.7,36,0.00,,---,0.00,VWS V14.00,2013-01-11 17:05:00,
2013-01-11 12:10:00,75.0,46.3,30.00,South,180,3.8,4.3,36,0.00,,---,0.00,VWS V14.00,2013-01-11 17:10:00,
2013-01-11 12:15:00,75.0,45.5,30.00,South,180,6.5,8.5,35,0.00,,---,0.00,VWS V14.00,2013-01-11 17:15:00,
2013-01-11 12:20:00,75.0,45.5,30.00,SW,225,2.0,4.3,35,0.00,,---,0.00,VWS V14.00,2013-01-11 17:20:00,
2013-01-11 12:25:00,75.0,44.0,30.00,SSW,202,5.6,7.4,33,0.00,,---,0.00,VWS V14.00,2013-01-11 17:25:00,
2013-01-11 12:30:00,75.2,42.5,30.00,SW,225,9.8,9.8,31,0.00,,---,0.00,VWS V14.00,2013-01-11 17:30:00,
2013-01-11 12:35:00,75.6,43.7,30.00,SSW,202,6.5,8.7,32,0.00,,---,0.00,VWS V14.00,2013-01-11 17:35:00,
2013-01-11 12:40:00,75.9,43.1,30.00,South,180,6.0,6.0,31,0.00,,---,0.00,VWS V14.00,2013-01-11 17:40:00,
2013-01-11 12:45:00,76.3,44.3,29.97,SSW,202,3.6,8.1,32,0.00,,---,0.00,VWS V14.00,2013-01-11 17:45:00,
2013-01-11 12:50:00,76.6,42.9,29.97,SSW,202,8.1,8.1,30,0.00,,---,0.00,VWS V14.00,2013-01-11 17:50:00,
2013-01-11 12:55:00,76.8,43.9,29.97,SW,225,1.3,4.0,31,0.00,,---,0.00,VWS V14.00,2013-01-11 17:55:00,
2013-01-11 13:00:00,77.0,44.1,29.97,South,180,2.5,6.0,31,0.00,,---,0.00,VWS V14.00,2013-01-11 18:00:00,
2013-01-11 13:05:00,77.2,44.2,29.97,South,180,3.8,8.1,31,0.00,,---,0.00,VWS V14.00,2013-01-11 18:05:00,
2013-01-11 13:10:00,77.5,44.5,29.97,SSW,202,5.8,5.8,31,0.00,,---,0.00,VWS V14.00,2013-01-11 18:10:00,
2013-01-11 13:15:00,77.7,44.7,29.97,SSE,158,8.7,8.7,31,0.00,,---,0.00,VWS V14.00,2013-01-11 18:15:00,
2013-01-11 13:21:00,77.4,41.7,29.97,SSW,202,3.6,3.6,28,0.00,,---,0.00,VWS V14.00,2013-01-11 18:21:00,
2013-01-11 13:26:00,77.5,43.7,29.97,South,180,6.3,7.2,30,0.00,,---,0.00,VWS V14.00,2013-01-11 18:26:00,
2013-01-11 13:31:00,77.9,44.9,29.97,SSE,158,1.6,3.8,31,0.00,,---,0.00,VWS V14.00,2013-01-11 18:31:00,
2013-01-11 13:36:00,77.7,43.8,29.97,SSE,158,7.6,9.8,30,0.00,,---,0.00,VWS V14.00,2013-01-11 18:36:00,
2013-01-11 13:41:00,77.9,44.0,29.97,SSE,158,3.8,5.4,30,0.00,,---,0.00,VWS V14.00,2013-01-11 18:41:00,
2013-01-11 13:46:00,78.4,44.5,29.97,SSE,158,10.1,11.0,30,0.00,,---,0.00,VWS V14.00,2013-01-11 18:46:00,
2013-01-11 13:51:00,79.0,44.9,29.97,SSW,202,0.0,2.7,30,0.00,,---,0.00,VWS V14.00,2013-01-11 18:51:00,
2013-01-11 13:56:00,78.8,43.0,29.97,WSW,248,1.3,2.0,28,0.00,,---,0.00,VWS V14.00,2013-01-11 18:56:00,
2013-01-11 14:01:00,79.5,40.7,29.97,South,180,3.6,7.2,25,0.00,,---,0.00,VWS V14.00,2013-01-11 19:01:00,
2013-01-11 14:06:00,79.7,39.8,29.97,SSW,202,7.6,7.8,24,0.00,,---,0.00,VWS V14.00,2013-01-11 19:06:00,
2013-01-11 14:11:00,78.6,38.8,29.97,South,180,4.0,7.6,24,0.00,,---,0.00,VWS V14.00,2013-01-11 19:11:00,
2013-01-11 14:16:00,78.6,38.8,29.97,SE,135,3.1,6.3,24,0.00,,---,0.00,VWS V14.00,2013-01-11 19:16:00,
2013-01-11 14:21:00,78.6,40.9,29.97,South,180,4.0,6.0,26,0.00,,---,0.00,VWS V14.00,2013-01-11 19:21:00,
2013-01-11 14:26:00,78.8,40.0,29.97,SSE,158,8.1,8.1,25,0.00,,---,0.00,VWS V14.00,2013-01-11 19:26:00,
2013-01-11 14:31:00,79.0,41.2,29.97,South,180,4.9,5.6,26,0.00,,---,0.00,VWS V14.00,2013-01-11 19:31:00,
2013-01-11 14:36:00,78.8,40.0,29.97,South,180,2.7,5.4,25,0.00,,---,0.00,VWS V14.00,2013-01-11 19:36:00,
2013-01-11 14:41:00,79.0,40.2,29.97,ENE,68,2.7,3.4,25,0.00,,---,0.00,VWS V14.00,2013-01-11 19:41:00,
2013-01-11 14:46:00,79.2,40.3,29.94,SE,135,6.3,6.3,25,0.00,,---,0.00,VWS V14.00,2013-01-11 19:46:00,
2013-01-11 14:51:00,79.3,40.5,29.94,SSW,202,3.1,3.8,25,0.00,,---,0.00,VWS V14.00,2013-01-11 19:51:00,
2013-01-11 14:56:00,79.3,39.5,29.97,ESE,112,5.8,7.4,24,0.00,,---,0.00,VWS V14.00,2013-01-11 19:56:00,
2013-01-11 15:01:00,79.3,39.5,29.97,SW,225,3.1,3.1,24,0.00,,---,0.00,VWS V14.00,2013-01-11 20:01:00,
2013-01-11 15:07:00,79.2,38.2,29.97,SSE,158,8.1,8.1,23,0.00,,---,0.00,VWS V14.00,2013-01-11 20:07:00,
2013-01-11 15:12:00,79.5,38.5,29.97,SSW,202,4.3,4.9,23,0.00,,---,0.00,VWS V14.00,2013-01-11 20:12:00,
2013-01-11 15:17:00,79.7,38.7,29.97,South,180,4.7,5.6,23,0.00,,---,0.00,VWS V14.00,2013-01-11 20:17:00,
2013-01-11 15:22:00,79.7,37.5,29.97,SSW,202,4.3,4.3,22,0.00,,---,0.00,VWS V14.00,2013-01-11 20:22:00,
2013-01-11 15:27:00,79.7,37.5,29.94,SSW,202,2.0,2.7,22,0.00,,---,0.00,VWS V14.00,2013-01-11 20:27:00,
2013-01-11 15:32:00,79.3,37.2,29.94,SSE,158,4.0,5.4,22,0.00,,---,0.00,VWS V14.00,2013-01-11 20:32:00,
2013-01-11 15:37:00,79.5,39.6,29.94,ESE,112,5.8,7.4,24,0.00,,---,0.00,VWS V14.00,2013-01-11 20:37:00,
2013-01-11 15:42:00,79.5,41.7,29.94,SSE,158,6.5,6.5,26,0.00,,---,0.00,VWS V14.00,2013-01-11 20:42:00,
2013-01-11 15:47:00,79.2,42.3,29.94,ENE,68,0.0,4.9,27,0.00,,---,0.00,VWS V14.00,2013-01-11 20:47:00,
2013-01-11 15:52:00,78.8,43.9,29.94,SE,135,6.5,6.5,29,0.00,,---,0.00,VWS V14.00,2013-01-11 20:52:00,
2013-01-11 15:57:00,78.6,44.6,29.97,WSW,248,0.0,2.9,30,0.00,,---,0.00,VWS V14.00,2013-01-11 20:57:00,
2013-01-11 16:02:00,78.6,44.6,29.97,ENE,68,5.4,7.4,30,0.00,,---,0.00,VWS V14.00,2013-01-11 21:02:00,
2013-01-11 16:07:00,78.4,44.5,29.97,ENE,68,0.0,5.4,30,0.00,,---,0.00,VWS V14.00,2013-01-11 21:07:00,
2013-01-11 16:12:00,77.9,44.0,29.97,East,90,0.9,4.0,30,0.00,,---,0.00,VWS V14.00,2013-01-11 21:12:00,
2013-01-11 16:21:00,77.2,44.2,29.97,ESE,112,1.3,1.3,31,0.00,,---,0.00,VWS V14.00,2013-01-11 21:21:00,
2013-01-11 16:26:00,76.6,44.6,29.97,ENE,68,6.3,6.3,32,0.00,,---,0.00,VWS V14.00,2013-01-11 21:26:00,
2013-01-11 16:31:00,76.3,44.3,29.97,NE,45,0.0,0.0,32,0.00,,---,0.00,VWS V14.00,2013-01-11 21:31:00,
2013-01-11 16:36:00,75.9,44.8,29.97,SSE,158,0.0,0.0,33,0.00,,---,0.00,VWS V14.00,2013-01-11 21:36:00,
2013-01-11 16:41:00,75.6,44.5,29.97,ESE,112,0.0,3.4,33,0.00,,---,0.00,VWS V14.00,2013-01-11 21:41:00,
2013-01-11 16:47:00,75.4,45.1,29.97,SSE,158,1.1,2.5,34,0.00,,---,0.00,VWS V14.00,2013-01-11 21:47:00,
2013-01-11 16:52:00,75.2,44.9,29.97,SSE,158,0.0,2.0,34,0.00,,---,0.00,VWS V14.00,2013-01-11 21:52:00,
2013-01-11 16:57:00,74.8,45.4,29.97,NE,45,1.3,6.3,35,0.00,,---,0.00,VWS V14.00,2013-01-11 21:57:00,
2013-01-11 17:02:00,74.5,45.8,29.97,SSE,158,6.0,6.0,36,0.00,,---,0.00,VWS V14.00,2013-01-11 22:02:00,
2013-01-11 17:07:00,74.1,45.5,29.97,ESE,112,3.4,6.0,36,0.00,,---,0.00,VWS V14.00,2013-01-11 22:07:00,
2013-01-11 17:12:00,73.9,46.0,29.97,ESE,112,0.0,0.9,37,0.00,,---,0.00,VWS V14.00,2013-01-11 22:12:00,
2013-01-11 17:17:00,73.6,45.7,29.97,SSE,158,3.6,3.6,37,0.00,,---,0.00,VWS V14.00,2013-01-11 22:17:00,
2013-01-11 17:22:00,73.2,46.1,29.97,East,90,6.5,6.5,38,0.00,,---,0.00,VWS V14.00,2013-01-11 22:22:00,
2013-01-11 17:27:00,72.9,46.5,29.97,ESE,112,4.9,7.6,39,0.00,,---,0.00,VWS V14.00,2013-01-11 22:27:00,
2013-01-11 17:32:00,72.5,46.8,29.97,SSE,158,0.0,3.1,40,0.00,,---,0.00,VWS V14.00,2013-01-11 22:32:00,
2013-01-11 17:37:00,72.1,47.2,29.97,SSW,202,0.0,2.9,41,0.00,,---,0.00,VWS V14.00,2013-01-11 22:37:00,
2013-01-11 17:42:00,71.8,47.5,29.97,SSE,158,1.1,6.5,42,0.00,,---,0.00,VWS V14.00,2013-01-11 22:42:00,
2013-01-11 17:47:00,71.4,47.8,29.97,ESE,112,0.0,0.0,43,0.00,,---,0.00,VWS V14.00,2013-01-11 22:47:00,
2013-01-11 17:52:00,71.1,48.7,29.97,SSE,158,0.0,2.2,45,0.00,,---,0.00,VWS V14.00,2013-01-11 22:52:00,
2013-01-11 17:57:00,70.9,48.5,29.97,SE,135,0.0,0.0,45,0.00,,---,0.00,VWS V14.00,2013-01-11 22:57:00,
2013-01-11 18:02:00,70.7,48.9,29.97,SSE,158,0.0,0.0,46,0.00,,---,0.00,VWS V14.00,2013-01-11 23:02:00,
2013-01-11 18:07:00,70.3,49.2,29.97,SSW,202,0.0,0.0,47,0.00,,---,0.00,VWS V14.00,2013-01-11 23:07:00,
2013-01-11 18:12:00,70.2,49.6,29.97,SE,135,0.0,6.0,48,0.00,,---,0.00,VWS V14.00,2013-01-11 23:12:00,
2013-01-11 18:17:00,70.0,50.0,29.97,ESE,112,0.0,0.0,49,0.00,,---,0.00,VWS V14.00,2013-01-11 23:17:00,
2013-01-11 18:22:00,69.8,50.3,29.97,SSE,158,0.0,5.4,50,0.00,,---,0.00,VWS V14.00,2013-01-11 23:22:00,
2013-01-11 18:27:00,69.6,50.7,29.97,ESE,112,0.0,0.0,51,0.00,,---,0.00,VWS V14.00,2013-01-11 23:27:00,
2013-01-11 18:32:00,69.4,50.5,29.97,ENE,68,0.0,0.0,51,0.00,,---,0.00,VWS V14.00,2013-01-11 23:32:00,
2013-01-11 18:37:00,69.3,50.9,29.97,NNE,22,3.1,3.1,52,0.00,,---,0.00,VWS V14.00,2013-01-11 23:37:00,
2013-01-11 18:42:00,69.1,51.2,29.97,SE,135,0.0,0.0,53,0.00,,---,0.00,VWS V14.00,2013-01-11 23:42:00,
2013-01-11 18:47:00,68.9,51.6,29.97,South,180,0.0,0.0,54,0.00,,---,0.00,VWS V14.00,2013-01-11 23:47:00,
2013-01-11 18:52:00,68.7,51.4,29.97,SSE,158,4.9,4.9,54,0.00,,---,0.00,VWS V14.00,2013-01-11 23:52:00,
2013-01-11 18:57:00,68.5,51.8,29.97,SE,135,2.5,2.5,55,0.00,,---,0.00,VWS V14.00,2013-01-11 23:57:00,
2013-01-11 19:02:00,68.4,51.6,29.97,SSE,158,0.0,0.0,55,0.00,,---,0.00,VWS V14.00,2013-01-12 00:02:00,
2013-01-11 19:07:00,68.4,52.1,29.97,SE,135,0.0,0.0,56,0.00,,---,0.00,VWS V14.00,2013-01-12 00:07:00,
2013-01-11 19:12:00,68.2,52.4,29.97,SE,135,0.0,0.0,57,0.00,,---,0.00,VWS V14.00,2013-01-12 00:12:00,
2013-01-11 19:17:00,68.0,52.2,29.97,ENE,68,0.0,0.0,57,0.00,,---,0.00,VWS V14.00,2013-01-12 00:17:00,
2013-01-11 19:22:00,67.8,52.5,29.97,ENE,68,0.0,0.0,58,0.00,,---,0.00,VWS V14.00,2013-01-12 00:22:00,
2013-01-11 19:27:00,67.6,52.8,29.97,ENE,68,0.0,0.0,59,0.00,,---,0.00,VWS V14.00,2013-01-12 00:27:00,
2013-01-11 19:32:00,67.5,52.7,29.97,ENE,68,0.0,0.0,59,0.00,,---,0.00,VWS V14.00,2013-01-12 00:32:00,
2013-01-11 19:37:00,67.3,52.9,29.97,SE,135,0.0,0.0,60,0.00,,---,0.00,VWS V14.00,2013-01-12 00:37:00,
2013-01-11 19:42:00,67.1,52.8,29.97,ESE,112,0.0,0.0,60,0.00,,---,0.00,VWS V14.00,2013-01-12 00:42:00,
2013-01-11 19:47:00,66.9,53.0,29.97,ESE,112,0.0,0.0,61,0.00,,---,0.00,VWS V14.00,2013-01-12 00:47:00,
2013-01-11 19:52:00,66.7,52.9,29.97,SSE,158,0.0,0.0,61,0.00,,---,0.00,VWS V14.00,2013-01-12 00:52:00,
2013-01-11 19:57:00,66.6,53.2,29.97,SSE,158,0.0,4.3,62,0.00,,---,0.00,VWS V14.00,2013-01-12 00:57:00,
2013-01-11 20:02:00,66.6,53.2,29.97,SSW,202,0.0,0.0,62,0.00,,---,0.00,VWS V14.00,2013-01-12 01:02:00,
2013-01-11 20:07:00,66.4,53.0,29.97,NE,45,0.0,0.0,62,0.00,,---,0.00,VWS V14.00,2013-01-12 01:07:00,
2013-01-11 20:12:00,66.4,53.4,29.97,NW,315,0.0,0.0,63,0.00,,---,0.00,VWS V14.00,2013-01-12 01:12:00,
2013-01-11 20:17:00,66.2,53.2,29.97,SSE,158,0.0,0.0,63,0.00,,---,0.00,VWS V14.00,2013-01-12 01:17:00,
2013-01-11 20:22:00,66.0,53.5,29.97,South,180,0.0,0.0,64,0.00,,---,0.00,VWS V14.00,2013-01-12 01:22:00,
2013-01-11 20:27:00,65.8,53.3,29.97,SSE,158,0.0,0.0,64,0.00,,---,0.00,VWS V14.00,2013-01-12 01:27:00,
2013-01-11 20:32:00,65.7,53.2,29.97,SE,135,0.0,0.0,64,0.00,,---,0.00,VWS V14.00,2013-01-12 01:32:00,